Grand Junction, CO

1:37 PM MDT on April 26, 2017 (GMT -0600)
Walker

Weather History for KGJT - June, 2014

Change the Weather History Date:

Monday, June 16, 2014

  Actual Average Record
Temperature  
Mean Temperature 75 °F 72 °F  
Max Temperature 86 °F 88 °F 100 °F (1896)
Min Temperature 63 °F 57 °F 43 °F (1957)
Degree Days  
Heating Degree Days 0 1  
Month to date heating degree days 14 20  
Since 1 June heating degree days 14 20  
Since 1 July heating degree days 6264 5609  
Cooling Degree Days 10 8  
Month to date cooling degree days 81 92  
Year to date cooling degree days 140 143  
Since 1 June cooling degree days 81 92  
Growing Degree Days 25 (Base 50)    
Moisture  
Dew Point 13 °F    
Average Humidity 10    
Maximum Humidity 13    
Minimum Humidity 6    
Precipitation  
Precipitation 0.00 in 0.02 in 0.30 in (1969)
Month to date precipitation 0.13 0.27  
Year to date precipitation 3.91 4.10  
Snow  
Snow 0.00 in 0.00 in 0.00 in (2015)
Month to date snowfall 0.0 0.0  
Since 1 June snowfall 0.0 0.0  
Since 1 July snowfall 25.7 19.1  
Snow Depth 0.00 in    
Sea Level Pressure  
Sea Level Pressure 29.56 in    
Wind  
Wind Speed 13 mph (South)    
Max Wind Speed 32 mph    
Max Gust Speed 40 mph    
Visibility 10 miles    
Events      
T = Trace of Precipitation, MM = Missing Value Source: NWS Daily Summary

Daily Weather History Graph

Daily Weather History Graph

Search for Another Location

Airport or City:

Trip Planner

Search our weather history database for the weather conditions in past years. The results will help you decide how hot, cold, wet, or windy it might be!

Date:

Astronomy

Jun. 16, 2014 Rise Set
Actual Time 5:47 AM MDT 8:42 PM MDT
Civil Twilight 5:15 AM MDT 9:14 PM MDT
Nautical Twilight 4:34 AM MDT 9:55 PM MDT
Astronomical Twilight 3:47 AM MDT 10:41 PM MDT
Moon 11:37 PM MDT (6/16) 9:53 AM MDT (6/16)
Length of Visible Light 15h 59m
Length of Day
14h 54m
Waning Gibbous, 82% of the Moon is Illuminated
Jun 16
Waning Gibbous
Jun 19
Last Quarter
Jun 27
New
Jul 5
First Quarter
Jul 12
Full

Hourly Weather History & Observations

Time (MDT) Temp. Dew Point Humidity Pressure Visibility Wind Dir Wind Speed Gust Speed Precip Events Conditions
12:53 AM 72.0 °F 12.0 °F 10% 29.51 in 10.0 mi SE 15.0 mph - N/A   Clear
1:53 AM 72.0 °F 12.0 °F 10% 29.51 in 10.0 mi SSE 6.9 mph - N/A   Clear
2:53 AM 69.1 °F 14.0 °F 12% 29.53 in 10.0 mi ESE 3.5 mph - N/A   Clear
3:53 AM 70.0 °F 14.0 °F 12% 29.55 in 10.0 mi SSE 8.1 mph - N/A   Clear
4:53 AM 66.0 °F 14.0 °F 13% 29.57 in 10.0 mi ESE 9.2 mph - N/A   Clear
5:53 AM 64.9 °F 12.9 °F 13% 29.60 in 10.0 mi SE 11.5 mph - N/A   Clear
6:53 AM 69.1 °F 10.0 °F 10% 29.62 in 10.0 mi SSE 15.0 mph - N/A   Clear
7:53 AM 69.1 °F 10.9 °F 11% 29.65 in 10.0 mi SSE 12.7 mph - N/A   Clear
8:53 AM 70.0 °F 12.0 °F 11% 29.67 in 10.0 mi SE 15.0 mph - N/A   Clear
9:53 AM 73.9 °F 10.0 °F 9% 29.66 in 10.0 mi SSE 20.7 mph 29.9 mph N/A   Clear
10:53 AM 78.1 °F 10.0 °F 7% 29.63 in 10.0 mi SSE 20.7 mph 28.8 mph N/A   Clear
11:53 AM 79.0 °F 10.9 °F 8% 29.62 in 10.0 mi South 10.4 mph 26.5 mph N/A   Clear
12:53 PM 82.0 °F 10.9 °F 7% 29.59 in 10.0 mi South 21.9 mph 27.6 mph N/A   Clear
1:53 PM 81.0 °F 12.9 °F 8% 29.58 in 10.0 mi SW 26.5 mph 32.2 mph N/A   Clear
2:53 PM 82.9 °F 10.9 °F 7% 29.56 in 10.0 mi WSW 20.7 mph 29.9 mph N/A   Clear
3:53 PM 82.0 °F 12.9 °F 7% 29.52 in 10.0 mi SSW 18.4 mph 24.2 mph N/A   Clear
4:53 PM 84.0 °F 10.9 °F 6% 29.53 in 10.0 mi SSW 27.6 mph 40.3 mph N/A   Clear
5:53 PM 81.0 °F 14.0 °F 8% 29.52 in 10.0 mi WSW 12.7 mph - N/A   Clear
6:53 PM 81.0 °F 18.0 °F 10% 29.50 in 10.0 mi West 4.6 mph - N/A   Clear
7:53 PM 80.1 °F 17.1 °F 9% 29.50 in 10.0 mi West 8.1 mph - N/A   Clear
8:53 PM 77.0 °F 18.0 °F 11% 29.50 in 10.0 mi Variable 3.5 mph - N/A   Clear
9:53 PM 78.1 °F 19.0 °F 11% 29.51 in 10.0 mi SSW 13.8 mph 19.6 mph N/A   Clear
10:53 PM 75.0 °F 21.0 °F 13% 29.51 in 10.0 mi South 6.9 mph - N/A   Clear
11:53 PM 73.0 °F 15.1 °F 11% 29.52 in 10.0 mi SSE 10.4 mph - N/A   Clear